RADUGA 10 1 12897U 81102A 21063.19910448 -.00000146 00000-0 00000-0 0 9999 2 12897 11.0663 313.8150 0003852 141.2094 218.9250 1.00250944 97970 SL-12 R/B(2) 1 14195U 81102F 21062.51413134 -.00000251 00000-0 00000-0 0 9994 2 14195 10.9845 313.4839 0009867 153.8814 206.1440 1.00209071103641